Regional Weather Roundup
Issued by NWS

Home | Current Version | Previous Version | Text Only | Print | Product List | Glossary On
Versions: 1 2 3 4 5 6 7 8 9 10 11 12 13 14 15 16 17 18 19 20 21 22 23 24 25 26 27 28 29 30 31 32 33 34 35 36 37 38 39 40 41 42 43 44 45 46 47 48 49 50
000
ASUS43 KLMK 242210
RWRKY
KENTUCKY REGIONAL WEATHER ROUNDUP
NATIONAL WEATHER SERVICE LOUISVILLE KY
500 PM EST SAT FEB 24 2018

NOTE "FAIR" INDICATES FEW OR NO CLOUDS BELOW 12,000 FEET
WITH NO SIGNIFICANT WEATHER AND/OR OBSTRUCTIONS TO VISIBILITY.

KYZ001>023-026-027-061>063-070>075-242300-
WESTERN AND SOUTH CENTRAL KENTUCKY

CITY           SKY/WX    TMP DP  RH WIND       PRES   REMARKS
PADUCAH        LGT RAIN  60  58  92 SE7       29.75F
HENDERSON      RAIN      54  53  97 SE7       29.84F
OWENSBORO      LGT RAIN  55  54  96 E8        29.82F
HOPKINSVILLE   PTSUNNY   67  64  91 S14       29.83S
BOWLING GREEN  PTSUNNY   70  65  84 S6        29.84F
GLASGOW        PTSUNNY  N/A N/A N/A CALM      29.87F
$$

KYZ024-025-028>034-038-045-046-053-242300-
NORTH CENTRAL KENTUCKY

CITY           SKY/WX    TMP DP  RH WIND       PRES   REMARKS
LOUISVILLE/SDF LGT RAIN  55  53  93 SE9       29.88F
LOUISVILLE/LOU RAIN      54  54 100 S5        29.90S FOG
FORT KNOX      TSTM      54  54 100 E7        29.88F
$$

KYZ035>037-039>044-047>052-055>060-089>105-242300-
NORTHEAST KENTUCKY

CITY           SKY/WX    TMP DP  RH WIND       PRES   REMARKS
LEXINGTON      LGT RAIN  58  53  84 E3        29.93F
COVINGTON      RAIN      53  51  93 SE17      29.91F FOG
FRANKFORT      LGT RAIN  54  51  90 E7        29.90F
$$

KYZ054-064>069-076>088-106>120-242300-
SOUTHEAST KENTUCKY

CITY           SKY/WX    TMP DP  RH WIND       PRES   REMARKS
JACKSON        FAIR      65  60  84 VRB6      29.97S
LONDON         PTSUNNY   67  61  81 S6        29.97S
SOMERSET       PTSUNNY   68  61  77 S10       29.94F
MIDDLESBORO    CLOUDY    66  61  82 S8        30.01S
MONTICELLO     FAIR      71  60  68 SE8       29.93F
$$





USA.gov is the U.S. government's official web portal to all federal, state and local government web resources and services.